Find Starlink 1371

NORAD ID: 45542 Int'l Des: 2020-025 Owner: SPXS Country: US Constellation: starlink operational
LEOCIRCULAR

实时位置

正在加载3D地球...

关于 Starlink 1371

正在加载描述...

即将过境

Passes for default location (London). Set your location on the main map for personalized predictions.

高度历史

Loading altitude history...

两行轨道根数

1 45542U 20025M 26124.52160810 .00086381 00000-0 11859-2 0 9999
2 45542 53.0451 180.7794 0006457 359.2356 0.8644 15.56600788334009
Epoch: May 4, 2026 • Age: 15 hours

当前状态

高度 401.6 km
速度 7.67 km/s
星下点 9.89°N, 80.78°E
发射日期 Apr 22, 2020
运行时间 6 years
类型 internet

技术详情

分类 Payload
质量 260.00 kg
干质量 248.00 kg
总质量 260.00 kg
长度 0.20 m
直径 2.80 m
跨度 9.00 m
形状 Box + pan
制造商 SPXS
平台类型 Starlink
阶段状态 In Orbit
所有者/国家 SPXS/US

Most Searched